North Bennington, VT

11:24 AM EDT on August 27, 2016 (GMT -0400)
Morse State

Weather History for KDDH - April, 2014

Change the Weather History Date:

Tuesday, April 8, 2014

  Actual Average Record
Temperature  
Mean Temperature 51 °F 43 °F  
Max Temperature 63 °F 54 °F 66 °F (1999)
Min Temperature 39 °F 32 °F 21 °F (2007)
Degree Days  
Heating Degree Days 14 22  
Month to date heating degree days 182 191  
Since 1 July heating degree days 6588 6426  
Cooling Degree Days 0 0  
Month to date cooling degree days 0 0  
Year to date cooling degree days 0 0  
Moisture  
Dew Point 41 °F    
Average Humidity 66    
Maximum Humidity 83    
Minimum Humidity 48    
Precipitation  
Precipitation 0.03 in 0.13 in 0.57 in (2001)
Month to date precipitation 0.24 1.00  
Year to date precipitation 8.25 9.14  
Sea Level Pressure  
Sea Level Pressure 29.45 in    
Wind  
Wind Speed 12 mph (SW)    
Max Wind Speed 38 mph    
Max Gust Speed 49 mph    
Visibility 10 miles    
Events Rain    
T = Trace of Precipitation, MM = Missing Value Source: NWS Daily Summary

Daily Weather History Graph

Daily Weather History Graph

Search for Another Location

Airport or City:

Trip Planner

Search our weather history database for the weather conditions in past years. The results will help you decide how hot, cold, wet, or windy it might be!

Date:

Astronomy

Apr. 08, 2014 Rise Set
Actual Time 6:23 AM EDT 7:27 PM EDT
Civil Twilight 5:54 AM EDT 7:56 PM EDT
Nautical Twilight 5:19 AM EDT 8:31 PM EDT
Astronomical Twilight 4:43 AM EDT 9:07 PM EDT
Moon 1:10 PM EDT (4/8) 2:42 AM EDT (4/8)
Length of Visible Light 14h 02m
Length of Day
13h 04m
Waxing Gibbous, 62% of the Moon is Illuminated
Apr 8
Waxing Gibbous
Apr 15
Full
Apr 22
Last Quarter
Apr 29
New
May 6
First Quarter

Hourly Weather History & Observations

Time (EDT) Temp. Windchill Dew Point Humidity Pressure Visibility Wind Dir Wind Speed Gust Speed Precip Events Conditions
12:54 AM 48.9 °F - 39.9 °F 71% 29.63 in 10.0 mi SSE 35.7 mph 51.8 mph 0.00 in   Overcast
1:54 AM 50.0 °F - 41.0 °F 71% 29.55 in 10.0 mi SE 31.1 mph 48.3 mph 0.01 in   Mostly Cloudy
2:54 AM 50.0 °F - 41.0 °F 71% 29.54 in 10.0 mi SSE 32.2 mph 41.4 mph N/A   Overcast
3:54 AM 50.0 °F - 41.0 °F 71% 29.49 in 10.0 mi SE 27.6 mph 41.4 mph N/A   Overcast
4:54 AM 50.0 °F - 43.0 °F 77% 29.47 in 10.0 mi ENE 4.6 mph - 0.00 in Rain Light Rain
5:20 AM 50.0 °F - 42.1 °F 74% 29.46 in 10.0 mi Variable 6.9 mph - 0.00 in   Overcast
5:54 AM 52.0 °F - 44.1 °F 74% 29.46 in 10.0 mi Variable 5.8 mph 21.9 mph 0.00 in   Overcast
6:54 AM 51.1 °F - 45.0 °F 80% 29.41 in 10.0 mi East 11.5 mph 19.6 mph 0.02 in   Overcast
7:54 AM 52.0 °F - 46.0 °F 80% 29.43 in 10.0 mi SSE 6.9 mph 18.4 mph N/A   Overcast
8:54 AM 53.1 °F - 46.0 °F 77% 29.40 in 10.0 mi Calm Calm - N/A   Overcast
9:32 AM 55.0 °F - 48.0 °F 77% 29.37 in 10.0 mi North - - N/A   Overcast
9:54 AM 55.0 °F - 48.0 °F 77% 29.37 in 10.0 mi SSW 4.6 mph - N/A   Overcast
10:12 AM 55.0 °F - 48.0 °F 77% 29.37 in 10.0 mi SSW 4.6 mph - N/A   Overcast
10:54 AM 57.0 °F - 48.0 °F 72% 29.35 in 10.0 mi Variable 5.8 mph - N/A   Overcast
11:54 AM 60.1 °F - 48.0 °F 64% 29.32 in 10.0 mi South 5.8 mph - N/A   Overcast
12:54 PM 60.1 °F - 46.9 °F 62% 29.30 in 10.0 mi West 6.9 mph - N/A   Overcast
1:54 PM 62.1 °F - 43.0 °F 50% 29.29 in 10.0 mi WSW 12.7 mph 19.6 mph N/A   Overcast
2:54 PM 60.1 °F - 46.0 °F 60% 29.30 in 10.0 mi North - - N/A   Overcast
3:54 PM 52.0 °F - 39.9 °F 63% 29.35 in 10.0 mi West 20.7 mph 35.7 mph N/A   Overcast
4:15 PM 48.9 °F - 39.0 °F 69% 29.37 in 10.0 mi WNW 17.3 mph 26.5 mph N/A   Overcast
4:54 PM 46.9 °F - 36.0 °F 66% 29.41 in 10.0 mi WNW 16.1 mph 20.7 mph N/A   Overcast
5:54 PM 45.0 °F 39.3 °F 35.1 °F 68% 29.47 in 10.0 mi West 11.5 mph 24.2 mph 0.00 in   Overcast
6:39 PM 44.1 °F 37.4 °F 33.1 °F 65% 29.50 in 10.0 mi West 13.8 mph 24.2 mph 0.00 in   Overcast
6:54 PM 43.0 °F 37.7 °F 33.1 °F 68% 29.50 in 10.0 mi WNW 9.2 mph 24.2 mph 0.00 in   Overcast
7:32 PM 43.0 °F 36.4 °F 33.1 °F 68% 29.51 in 10.0 mi West 12.7 mph 20.7 mph N/A   Overcast
7:54 PM 42.1 °F 36.1 °F 33.1 °F 70% 29.53 in 10.0 mi WNW 10.4 mph 25.3 mph N/A   Overcast
8:38 PM 41.0 °F 34.7 °F 32.0 °F 70% 29.55 in 10.0 mi West 10.4 mph 20.7 mph N/A   Overcast
8:54 PM 41.0 °F 33.5 °F 32.0 °F 70% 29.57 in 10.0 mi West 13.8 mph 19.6 mph N/A   Overcast
9:54 PM 39.0 °F 34.0 °F 33.1 °F 79% 29.59 in 10.0 mi WSW 6.9 mph - N/A   Mostly Cloudy
10:54 PM 39.0 °F 31.8 °F 33.1 °F 79% 29.59 in 10.0 mi WSW 11.5 mph - N/A   Partly Cloudy